Theta_e
334 332 328 325 328 325 319 311 294 298 299 292 291 294 290 300 298 296 294 297 295 300 303 303 303 305 302 301 302 305 306 304 303 293 292 307 313 316 318 320 323 325 325 325 325 325 326 335 335 336 337 339 338 338 339 340 341 341 341 342 342 342 342 343 344 344 344 344 344 343 343 343 343 343 343 343 342 342 341 341 341 343 344 346 347 349 348 348 346 347 347 348 345 344 344 345 345
331 328 328 326 322 320 311 309 297 294 294 290 293 295 293 297 296 293 293 295 298 301 301 301 302 304 304 303 304 306 304 304 306 307 307 312 313 314 316 320 322 324 324 324 325 324 324 328 336 335 335 336 336 336 337 338 338 339 339 339 339 340 340 340 340 341 341 341 341 341 341 341 341 340 340 341 340 339 339 339 340 340 342 344 345 346 347 347 348 348 345 344 341 340 340 340 341
327 325 326 323 320 317 314 306 295 290 290 287 289 291 296 293 294 297 297 299 300 301 300 300 301 302 302 301 300 301 295 307 307 307 307 312 310 311 315 319 321 323 323 323 324 323 324 328 334 334 334 334 334 335 336 336 337 337 337 337 337 338 338 338 338 338 338 339 338 338 338 338 338 338 338 338 338 337 337 336 337 337 339 340 342 343 344 345 344 343 342 341 339 337 337 336 337
326 326 325 319 312 311 301 300 294 292 290 288 289 292 295 294 297 298 300 300 300 300 301 301 299 303 303 299 301 306 304 304 308 307 306 308 308 313 314 318 321 322 322 323 322 322 323 331 334 334 334 333 333 334 335 336 336 335 335 336 336 336 336 336 336 336 336 336 336 335 335 336 336 336 336 336 335 334 334 334 333 333 335 336 339 340 341 340 340 340 339 338 336 334 333 333 333
320 324 326 318 311 306 302 298 297 293 291 291 291 291 295 297 298 299 300 300 300 299 300 301 299 303 304 302 303 299 300 307 307 309 307 309 312 313 315 318 318 320 320 321 322 321 324 332 333 332 333 333 333 333 334 334 334 334 334 334 334 334 334 334 334 334 333 333 332 332 332 332 332 332 332 332 331 331 331 330 330 330 330 331 333 335 335 335 335 334 334 333 332 331 330 330 329
320 319 322 317 309 309 304 297 293 292 297 297 295 293 296 299 300 299 299 299 301 299 301 299 299 300 301 302 305 302 307 302 307 307 307 307 313 314 315 318 315 318 318 319 319 319 321 332 332 332 333 332 332 332 332 332 332 331 331 331 331 332 331 332 332 332 330 330 329 329 329 329 329 329 329 328 328 328 327 327 327 327 327 327 328 329 330 330 330 329 329 328 328 327 326 325 325
317 314 314 309 308 306 296 292 292 293 298 299 295 295 299 299 300 299 298 299 301 301 300 301 301 300 298 301 303 305 309 310 308 307 309 310 313 314 315 313 317 317 317 318 317 318 321 330 330 331 330 330 331 331 331 330 330 329 329 330 330 330 329 329 329 329 328 327 327 327 327 327 327 327 326 326 325 325 325 326 325 326 326 326 326 327 328 328 328 327 326 326 325 325 323 323 323
320 312 309 299 298 296 292 290 292 292 292 297 297 297 299 301 299 298 298 296 297 297 300 301 301 297 297 303 299 304 309 308 310 309 310 311 312 312 312 313 315 315 316 316 315 317 326 329 329 329 329 329 329 329 329 329 328 328 327 327 328 328 328 327 327 326 326 325 325 324 325 326 325 325 325 325 325 325 325 325 324 324 324 324 324 324 325 325 325 324 323 323 322 322 322 322 322
314 312 309 299 294 296 292 292 293 295 295 298 298 302 306 301 300 299 297 299 299 298 299 300 299 297 295 300 299 303 306 308 308 311 310 310 310 310 310 312 313 313 314 314 314 314 318 327 328 328 328 328 328 328 328 328 327 327 326 326 326 325 325 325 325 325 324 324 323 323 323 324 324 324 324 324 324 323 323 322 323 323 323 323 322 323 323 323 324 323 323 323 322 322 321 321 322
308 306 300 297 295 293 291 292 294 297 298 297 297 299 300 300 299 300 298 298 298 297 299 300 298 297 299 298 298 302 303 306 306 306 307 309 309 307 308 309 312 312 312 312 312 313 315 325 327 327 327 327 327 327 327 327 327 326 326 325 324 324 324 323 323 323 323 323 323 322 322 322 322 322 322 322 322 321 321 321 321 321 321 321 321 321 321 322 321 322 321 321 321 321 321 321 321
301 307 304 296 293 291 292 292 291 295 297 299 297 299 300 299 300 298 298 298 299 299 300 300 300 297 298 298 299 304 307 305 304 303 305 306 305 304 305 309 311 312 310 310 311 312 313 316 324 326 326 326 326 326 326 325 325 325 324 323 323 323 322 322 322 322 322 322 321 321 319 319 318 318 319 319 320 320 319 318 318 319 319 319 319 319 319 319 319 319 319 319 319 319 319 320 320
299 301 300 292 290 290 289 291 293 295 297 297 299 300 299 301 300 298 298 298 298 298 299 300 299 299 298 298 300 303 304 303 303 304 305 304 301 303 304 306 308 310 310 309 310 309 310 312 315 321 323 324 323 324 323 324 324 324 323 323 322 321 321 320 320 319 319 318 318 318 318 317 315 315 314 315 316 317 318 317 317 317 318 318 318 318 318 319 319 319 318 318 318 317 318 318 318
301 300 296 294 289 291 291 293 294 296 293 294 297 300 299 300 299 297 297 297 298 298 299 301 301 301 297 297 299 303 302 302 304 304 304 301 301 301 302 304 306 308 309 309 308 307 307 308 311 312 317 320 321 321 321 321 321 321 321 321 320 320 319 319 318 317 316 315 315 314 314 314 314 313 312 312 312 315 317 316 315 316 317 317 317 317 317 318 318 317 317 318 316 316 316 317 315
303 301 299 293 293 293 292 291 292 292 290 296 297 300 301 300 299 298 298 297 297 298 301 303 301 300 298 296 298 299 301 304 303 303 301 301 301 301 302 302 303 305 306 306 306 306 306 307 308 309 309 310 311 315 318 318 319 320 319 319 318 318 317 317 316 315 314 313 312 311 311 311 311 311 310 310 309 311 313 313 313 314 315 315 315 314 315 316 315 315 316 315 313 313 313 314 313
304 303 298 294 290 291 290 292 292 292 291 295 299 299 300 302 302 302 300 298 297 301 302 304 303 299 293 298 294 300 302 303 302 302 301 300 300 300 301 301 301 301 302 303 304 304 304 305 306 305 305 305 305 305 307 313 316 316 316 315 315 315 314 314 313 313 312 312 311 310 309 309 308 308 308 307 307 307 308 309 310 311 313 313 312 312 314 313 313 313 313 312 311 311 310 310 311
306 302 297 293 288 290 291 293 293 293 292 296 298 298 298 300 300 301 301 301 300 302 302 299 303 299 298 299 297 302 304 302 302 301 299 299 299 300 300 300 299 299 300 301 302 302 302 303 303 303 303 303 302 303 304 306 313 313 313 313 313 312 311 310 310 309 308 309 309 309 308 305 305 305 307 304 305 305 306 307 309 309 310 311 310 311 311 311 311 311 311 310 310 309 308 307 307
305 300 294 291 290 291 290 294 294 291 294 297 298 298 297 297 299 300 299 299 299 300 301 301 301 303 300 300 302 304 302 303 303 299 298 297 297 297 297 296 297 297 300 299 299 299 300 301 302 301 302 301 301 301 302 303 308 312 311 311 310 310 310 309 308 308 307 306 306 308 307 298 297 297 298 300 307 302 306 309 307 307 308 308 307 309 310 309 309 310 309 308 307 307 305 305 305
303 296 291 288 291 292 293 296 296 298 296 296 297 296 296 296 298 300 300 300 298 298 298 299 302 297 300 302 303 302 302 301 299 297 297 296 296 295 295 295 296 296 297 297 298 298 299 300 301 301 301 300 300 301 301 302 305 305 301 302 303 306 308 309 304 302 308 299 307 303 299 299 296 295 298 305 301 303 303 308 306 305 306 306 305 306 307 307 307 308 308 306 305 304 303 295 297
299 294 292 289 290 294 297 298 297 297 296 296 295 295 296 296 296 298 298 294 296 296 296 298 298 298 300 300 300 300 300 299 298 297 296 295 295 295 295 295 295 295 296 296 297 298 299 299 300 300 300 299 299 299 300 300 299 298 298 299 302 306 304 301 300 300 297 298 297 298 298 298 295 296 298 301 301 306 303 306 303 303 303 303 302 302 304 305 304 305 305 303 302 301 294 293 293
300 297 291 292 295 297 299 298 299 298 298 298 297 297 295 297 297 298 297 294 294 295 295 295 297 297 296 298 298 299 299 298 297 297 296 296 296 296 295 295 294 295 296 297 297 298 298 298 299 299 300 299 298 298 299 299 299 298 297 298 299 299 299 299 297 297 297 297 297 297 296 298 296 296 306 306 302 295 297 303 302 302 301 302 301 297 299 301 302 301 302 301 298 294 292 292 292
298 297 292 294 296 297 297 298 298 298 299 298 297 296 296 296 297 297 294 294 294 296 297 298 297 299 296 298 297 298 298 297 296 296 296 296 296 297 297 296 295 295 296 297 297 298 298 298 298 299 300 299 299 298 299 298 298 297 296 297 297 297 297 297 297 297 296 296 296 297 296 297 296 294 294 294 293 293 292 292 292 293 292 292 298 291 291 292 292 291 291 294 290 292 291 291 291
300 297 298 297 297 297 300 297 297 298 296 297 296 296 295 298 297 296 295 295 295 296 299 299 300 301 298 297 297 297 297 296 296 296 296 296 296 296 297 296 296 294 296 295 296 297 298 298 298 299 299 299 299 299 298 299 298 296 296 297 297 296 297 296 296 296 296 295 295 296 297 295 295 294 293 293 293 293 292 292 291 291 290 290 293 290 290 290 290 289 290 290 290 290 290 291 291
296 297 297 298 299 298 300 298 297 296 297 296 296 295 297 297 296 295 296 297 300 297 298 299 300 301 300 300 298 296 296 296 296 296 296 296 296 297 297 297 296 294 296 296 297 297 298 298 297 298 298 298 298 298 297 298 297 296 296 297 296 296 296 295 295 294 295 294 294 296 294 293 292 292 292 292 292 292 292 291 290 291 290 289 291 289 289 289 289 289 289 290 289 290 290 290 290
301 297 295 297 298 297 298 299 296 295 296 295 295 297 296 295 294 295 296 300 301 299 298 299 299 299 300 299 298 297 297 297 296 297 298 297 298 298 298 297 297 296 295 296 296 297 298 297 297 298 298 298 297 297 297 297 296 296 296 299 297 298 296 295 294 294 295 293 294 295 295 292 292 291 292 291 291 291 292 291 291 290 289 289 291 290 289 288 288 288 289 289 289 289 289 290 290
297 297 296 298 297 297 296 295 294 294 295 295 297 295 296 295 295 295 297 301 299 300 300 300 298 297 298 299 298 298 297 297 297 297 298 298 298 299 298 297 296 296 295 296 296 296 297 298 297 297 297 297 297 297 296 296 296 296 297 296 295 300 295 294 294 294 293 294 294 294 294 292 291 291 291 291 290 291 291 291 289 289 289 289 289 288 289 288 288 288 289 289 289 289 289 289 290
296 298 298 296 296 296 296 296 296 295 296 295 295 295 296 295 296 295 299 300 300 298 298 299 299 297 296 298 299 298 298 297 298 297 297 298 298 298 298 297 296 295 296 296 296 296 297 297 297 297 297 297 297 296 295 295 296 295 296 295 295 298 294 294 294 293 292 292 292 293 294 292 291 290 290 289 290 290 290 290 290 289 288 288 288 288 289 288 288 288 288 289 289 288 288 289 290
296 295 295 295 296 295 296 296 298 296 295 294 295 295 295 295 296 293 299 300 299 299 299 298 297 298 298 298 298 299 299 298 298 299 297 297 297 297 298 298 296 296 296 295 296 296 297 297 297 297 297 298 296 295 295 295 295 295 295 294 295 294 294 294 293 292 292 292 292 292 292 293 291 291 290 289 289 289 289 290 289 289 287 287 288 288 289 289 288 287 288 288 288 288 288 288 288
297 295 295 296 296 295 296 296 296 295 296 295 296 295 293 293 294 295 300 297 296 297 297 298 297 297 298 297 297 298 299 300 299 298 297 296 297 297 297 298 297 296 296 296 296 296 296 296 296 296 297 298 297 295 296 295 294 295 295 293 293 294 294 293 292 292 293 292 292 292 291 291 293 290 290 290 290 289 289 288 288 287 287 287 288 288 288 288 288 288 288 289 288 288 287 287 288
296 296 293 295 294 295 298 297 298 295 296 294 295 294 292 292 292 298 300 299 297 296 296 297 298 298 298 297 297 297 298 299 298 298 299 299 299 299 298 299 299 296 297 297 296 296 296 296 296 296 296 297 296 295 295 295 295 295 294 292 293 294 293 292 292 292 292 292 292 291 291 292 292 291 290 291 292 288 288 288 288 288 287 287 287 289 288 287 287 287 287 288 287 288 287 286 288
297 295 292 294 292 290 297 297 298 295 295 295 296 286 289 293 296 298 300 297 296 296 296 296 297 298 298 297 297 297 297 297 297 299 300 300 299 299 299 299 299 298 296 296 295 295 296 297 297 296 296 296 296 295 295 295 295 294 294 293 294 293 292 292 292 291 292 292 292 291 290 291 291 290 290 289 288 288 288 288 287 286 286 287 287 287 286 286 286 286 287 286 289 287 285 285 285
291 292 293 288 286 287 295 295 293 293 294 296 296 288 292 294 296 296 297 298 296 295 296 297 297 297 297 297 297 298 298 298 299 300 300 300 300 300 299 299 299 298 296 296 295 295 296 296 297 296 296 295 296 295 295 294 295 294 293 293 293 293 292 291 291 291 291 291 291 290 290 291 290 290 289 288 288 287 287 286 286 286 287 287 286 287 286 286 286 286 287 286 284 284 284 286 285
291 289 285 285 287 288 295 294 294 293 294 294 295 287 291 295 297 297 296 296 295 295 296 296 297 297 297 297 297 297 299 298 299 300 300 300 300 300 299 299 299 298 296 296 296 295 295 295 296 295 295 295 294 294 294 294 294 294 293 294 293 292 292 291 291 291 291 291 291 290 290 290 289 289 289 288 287 287 286 286 286 287 286 286 286 286 286 285 285 286 286 285 283 283 285 283 284
289 290 285 286 285 288 291 293 294 295 292 293 295 289 290 291 294 297 294 295 295 295 296 295 296 296 297 297 297 298 298 297 297 298 299 300 300 300 299 299 299 299 297 296 295 294 294 294 295 294 294 294 294 294 293 293 293 293 293 293 293 292 291 291 290 291 291 290 290 290 290 290 289 289 288 288 287 287 286 286 286 286 287 285 285 285 284 286 284 287 285 286 284 283 283 283 283
286 287 285 287 287 288 287 291 292 291 294 290 292 290 292 295 291 291 292 294 294 294 295 296 296 296 297 297 297 298 297 297 297 298 298 299 300 300 300 300 299 299 297 296 296 295 294 294 294 294 294 294 294 294 293 293 293 292 292 292 293 291 290 290 290 290 290 290 290 289 290 290 289 288 288 287 287 287 286 286 286 286 286 285 284 284 284 284 285 284 283 283 284 283 282 282 282
284 285 285 287 288 289 290 289 291 292 291 291 290 289 291 293 295 295 296 293 293 294 295 296 296 296 296 296 297 297 297 297 298 300 299 299 299 300 299 299 298 298 297 296 295 295 294 294 294 294 294 293 293 293 293 292 292 291 290 290 291 290 289 289 290 289 289 290 290 290 289 289 289 288 288 287 287 287 286 285 286 286 285 284 284 284 283 286 285 283 283 283 284 283 282 283 283
288 288 288 286 286 288 289 292 292 293 289 289 289 289 291 292 293 295 296 297 295 294 293 294 295 296 296 296 297 297 297 297 300 299 298 299 299 299 298 298 298 298 297 296 295 294 293 293 292 293 293 293 293 293 292 291 290 290 289 289 289 289 289 289 289 289 288 289 290 290 289 289 289 288 287 287 286 286 285 285 285 285 285 284 284 283 282 282 282 282 282 283 282 283 284 283 283
291 289 288 288 288 289 292 293 292 291 290 289 291 291 291 293 294 295 296 296 295 295 294 294 295 296 297 297 298 298 298 298 300 298 298 298 299 299 298 297 297 296 296 295 294 293 293 293 292 292 293 293 293 292 291 291 290 289 288 289 289 290 289 289 289 289 288 288 290 289 289 288 288 288 288 287 286 287 285 284 285 284 285 284 284 283 283 283 283 283 283 283 284 281 281 281 282
291 290 288 288 287 288 293 293 292 290 291 288 290 291 291 292 294 296 295 292 293 295 295 295 295 296 297 298 298 298 299 299 298 295 296 297 297 297 296 296 295 294 294 294 294 293 293 293 292 293 293 292 293 292 292 291 291 291 290 289 289 289 289 288 288 288 289 289 289 289 289 288 288 288 287 286 286 286 284 284 284 284 284 284 284 284 283 286 284 282 283 281 282 282 280 281 283
290 289 288 286 288 291 293 293 293 290 289 289 289 288 290 291 293 295 295 294 295 297 297 298 298 296 296 297 297 298 298 297 295 296 296 296 296 297 295 295 295 296 294 294 294 293 292 292 293 293 293 292 292 293 292 291 291 290 290 289 289 288 288 289 288 289 289 288 289 289 288 288 288 287 287 287 286 285 284 284 284 284 284 285 283 282 282 282 282 282 281 281 280 280 282 283 281
289 289 285 286 290 287 287 288 289 289 290 284 284 286 288 290 292 293 295 295 296 297 298 298 299 298 297 298 299 299 297 295 295 296 294 294 295 295 294 294 294 294 293 293 293 293 293 293 292 292 292 292 292 292 292 291 291 290 288 289 288 289 288 289 288 287 287 288 287 288 288 288 287 287 287 286 286 285 284 284 284 283 283 283 282 281 281 281 281 281 281 282 281 278 278 278 283
290 290 288 288 289 290 289 290 288 287 289 288 287 287 288 289 290 293 296 297 296 297 297 297 298 299 299 300 299 299 298 297 296 293 292 293 293 294 294 294 293 293 293 293 293 293 293 293 293 292 292 292 292 292 292 290 290 288 288 288 288 287 287 286 286 285 287 287 287 287 287 287 287 286 286 286 286 285 284 284 283 283 283 282 283 281 281 281 281 281 281 281 280 279 278 278 279
289 289 290 291 291 290 290 289 287 285 283 288 287 284 285 288 290 292 295 291 292 294 294 296 297 298 298 298 299 299 298 298 297 295 294 294 294 294 292 292 292 293 293 293 294 294 294 293 293 292 292 292 292 292 291 290 290 289 288 287 285 286 285 285 285 286 286 286 287 287 287 287 287 286 286 286 286 285 284 284 283 283 282 282 283 281 281 281 280 281 281 280 280 280 279 279 277
288 285 290 292 291 290 288 286 286 281 281 286 288 283 283 284 287 290 291 290 292 292 292 294 295 296 296 297 298 298 297 296 294 294 294 293 293 293 292 292 292 293 293 293 294 293 293 293 293 292 292 292 292 291 291 291 289 289 288 288 287 287 286 286 287 287 287 287 287 286 287 287 287 286 285 285 285 285 284 283 283 283 282 282 283 281 280 281 281 280 281 280 280 283 279 278 277
287 288 289 289 289 287 287 287 287 285 284 287 286 283 281 284 288 289 291 291 291 292 293 294 295 295 295 296 297 297 296 296 295 294 294 294 293 293 292 292 292 293 293 292 293 293 292 292 292 292 292 292 291 291 291 291 290 289 288 288 288 287 287 287 287 287 287 287 286 286 286 286 286 286 285 285 285 285 284 283 283 282 282 282 282 281 280 280 281 282 282 281 280 281 279 278 277
288 289 290 290 290 288 288 287 284 282 282 283 284 286 283 284 286 292 292 289 290 292 294 294 295 296 296 296 297 297 297 296 296 295 293 293 293 293 293 292 293 292 292 292 292 293 293 292 292 292 291 291 291 291 291 290 290 289 289 288 287 288 287 287 287 287 287 287 286 286 286 285 285 285 285 285 284 284 284 283 282 282 282 281 283 282 281 281 280 280 279 279 279 279 279 279 278
289 289 289 288 287 286 288 285 285 280 277 281 281 285 281 283 289 285 287 289 289 291 293 295 295 296 297 297 297 297 297 295 296 297 295 294 294 294 294 293 291 292 292 292 292 292 292 291 291 291 291 291 291 290 291 290 290 290 289 288 287 287 286 285 286 286 285 286 285 285 285 285 285 284 284 284 284 284 283 283 282 282 281 281 282 281 280 280 280 279 279 279 279 278 279 279 279
291 289 288 284 282 282 280 280 278 280 278 281 283 285 284 280 285 286 285 286 290 292 292 294 295 295 296 297 296 296 296 296 296 296 295 294 294 293 292 291 291 290 290 291 291 291 291 291 291 290 291 291 290 290 290 290 290 289 289 288 287 287 286 285 285 285 285 285 284 284 284 284 284 284 284 283 283 283 283 283 282 281 281 282 282 280 280 280 279 279 279 279 279 278 278 278 280
289 287 282 284 284 278 278 276 279 276 278 281 284 284 285 279 280 284 290 289 293 293 292 293 293 294 296 297 296 295 296 296 296 295 294 292 291 291 290 291 290 290 290 290 290 290 290 291 290 290 290 290 290 290 290 290 290 289 289 288 288 287 286 286 285 285 285 285 284 284 284 284 283 283 283 282 282 282 282 282 281 281 281 281 280 280 280 280 280 279 278 278 278 278 277 278 277
287 283 284 280 276 276 273 273 272 272 279 279 283 284 281 282 287 286 288 289 290 291 294 294 294 295 295 296 295 295 295 295 296 295 293 292 292 291 291 291 290 289 290 290 290 290 290 290 290 290 290 290 290 290 289 289 289 289 289 288 288 288 287 286 286 285 285 285 285 284 283 283 283 282 282 282 282 282 282 281 280 280 280 280 280 279 279 279 279 278 278 277 277 277 277 277 277
285 285 281 278 274 272 270 271 272 274 279 280 281 283 283 287 285 291 293 292 293 294 294 294 295 295 295 295 295 294 296 296 297 296 294 293 292 292 292 291 291 291 290 290 290 290 290 290 290 290 290 290 290 289 289 289 289 289 289 289 288 288 287 287 286 286 286 286 285 284 284 284 283 283 282 282 283 282 282 281 281 280 280 280 279 279 279 279 278 278 278 277 277 277 276 276 276
288 286 287 284 280 271 270 273 277 279 280 277 280 280 277 278 283 288 294 296 295 294 295 295 294 294 294 293 291 293 294 294 295 295 294 294 293 292 292 292 291 291 290 290 290 290 290 290 290 289 289 289 289 289 289 289 289 289 289 289 288 288 287 287 287 287 286 285 285 285 284 284 283 283 283 283 282 282 281 280 280 280 279 279 279 279 279 279 278 278 278 277 277 276 276 277 276
284 286 287 281 282 284 282 284 282 279 275 278 275 280 278 285 288 288 289 291 292 291 292 293 293 293 291 291 294 295 295 295 294 294 294 293 293 292 292 291 291 291 290 290 290 290 290 290 290 290 290 289 289 289 289 289 289 289 288 288 288 288 287 287 287 286 286 286 285 285 284 283 283 283 282 281 281 281 280 280 280 279 279 279 279 278 278 278 277 277 277 277 276 278 276 276 276
284 287 282 287 288 288 284 284 284 280 278 279 281 280 284 286 291 292 293 292 292 291 292 291 292 293 292 292 295 295 294 294 293 294 294 294 291 291 292 291 291 290 290 290 290 290 290 290 290 289 289 289 289 289 289 289 289 288 288 288 288 287 287 287 287 286 285 285 285 284 284 283 282 282 281 281 281 281 280 280 279 278 278 278 278 278 277 277 277 277 276 275 275 275 276 275 276
284 281 285 288 289 286 283 275 277 278 277 280 285 282 283 281 281 284 286 289 288 289 290 291 292 293 293 293 294 294 294 294 294 294 293 292 292 292 292 291 291 291 291 290 290 290 291 290 290 289 289 289 289 289 289 289 288 288 288 287 287 287 287 287 287 286 285 284 283 283 282 281 281 281 281 281 280 279 279 280 278 278 277 277 277 277 277 276 276 276 275 275 275 275 275 275 276
285 282 288 285 279 278 281 277 276 276 277 279 283 284 283 284 285 289 287 285 287 290 292 292 292 292 292 293 292 293 292 292 293 294 294 293 293 293 292 292 292 291 291 291 290 290 290 290 290 290 289 289 289 289 289 289 288 288 288 287 287 287 287 287 286 285 284 284 283 282 281 281 280 280 280 280 279 278 278 278 277 277 277 277 276 276 276 276 275 275 275 275 275 275 274 274 275
287 288 283 284 282 280 276 282 279 281 278 280 280 283 281 288 286 289 285 287 288 290 289 290 292 293 294 295 294 292 293 294 294 294 294 294 294 293 293 292 291 291 291 291 290 289 289 290 289 289 289 289 288 288 288 288 288 288 288 287 287 287 287 286 286 285 284 283 283 282 281 280 280 280 280 279 279 278 278 277 277 276 276 276 276 276 275 275 275 275 274 275 274 274 274 274 273
283 285 280 282 281 281 282 282 280 281 278 278 278 277 283 289 286 287 287 286 287 288 289 290 292 293 293 292 292 292 293 294 295 295 295 294 294 293 293 292 292 289 288 288 288 289 289 289 289 289 288 288 288 289 288 288 288 287 287 286 286 286 286 286 285 284 284 283 282 282 281 280 279 279 279 278 278 278 277 277 276 276 276 275 275 275 275 275 274 274 274 274 273 273 273 273 273
287 288 285 287 283 279 279 278 285 279 280 277 278 277 285 292 290 291 289 288 287 288 288 290 291 291 292 293 293 292 293 293 294 294 294 294 293 293 292 290 288 287 288 288 289 288 287 288 289 289 288 288 287 288 288 288 287 287 286 286 285 285 285 284 284 283 283 282 281 281 280 279 279 278 278 278 277 277 277 276 276 275 275 275 275 275 274 274 274 273 273 273 273 272 272 272 272
Wind_Speed
5 5 5 5 1 1 2 2 1 2 2 4 3 1 3 0 1 2 1 0 2 1 1 3 4 4 1 3 8 5 0 3 2 5 4 2 2 4 4 4 6 7 7 4 3 3 3 5 8 8 10 9 8 8 9 10 10 10 9 10 10 10 10 11 13 13 12 13 13 13 12 12 12 13 13 14 14 13 13 13 12 12 13 14 14 15 14 13 13 14 15 16 16 15 15 14 14
4 3 5 3 3 3 0 1 1 2 2 3 8 1 3 1 2 3 4 2 1 2 1 4 3 5 7 7 7 5 3 2 0 2 1 1 2 3 3 4 7 9 6 4 3 3 2 2 8 9 10 9 8 8 9 9 10 10 10 10 10 10 10 11 11 12 12 12 13 13 12 12 12 12 13 13 13 13 13 13 12 13 13 14 15 15 15 15 17 17 16 15 14 13 13 12 13
3 4 5 3 1 1 1 2 0 0 1 3 7 3 1 2 1 2 0 2 4 4 3 3 3 3 2 4 3 1 2 2 6 3 3 4 9 6 4 4 6 9 8 4 4 3 2 4 8 10 11 10 9 9 9 9 10 10 10 10 10 10 10 10 11 11 12 12 12 12 13 12 12 12 12 13 13 13 13 13 13 13 13 13 14 13 14 15 15 15 15 14 13 13 12 12 11
3 0 0 2 1 2 1 1 2 2 2 5 5 3 2 5 3 4 1 2 3 1 1 1 2 1 1 2 1 5 3 2 2 8 6 9 6 8 6 6 8 7 7 5 4 3 2 5 8 10 11 10 10 10 10 10 10 10 10 10 10 10 10 10 11 11 12 13 13 14 14 14 13 13 13 13 13 13 13 13 13 13 13 13 13 13 13 15 14 14 13 13 12 12 12 11 11
2 4 0 1 3 1 1 2 2 2 4 4 1 5 2 4 6 4 2 2 0 2 1 2 3 2 0 2 0 1 4 2 4 3 4 3 4 7 6 6 7 8 7 5 4 3 3 7 9 11 11 11 11 11 11 11 12 12 11 11 12 12 12 12 12 13 13 14 14 14 14 14 14 14 14 13 13 13 13 13 13 13 13 13 13 13 13 13 13 12 12 12 11 11 11 10 10
3 2 2 2 0 2 2 2 4 4 9 3 3 2 4 7 9 5 3 3 1 2 1 3 3 2 1 1 0 5 6 4 5 3 6 7 12 9 7 6 7 7 6 5 4 3 4 8 10 11 12 12 11 11 11 11 12 12 12 12 12 12 12 13 13 13 13 14 14 14 14 14 14 14 14 14 13 13 13 13 13 13 13 13 13 13 13 13 13 12 12 12 12 12 11 11 10
1 4 2 3 1 2 3 2 6 5 11 5 4 2 8 4 7 8 3 2 2 2 2 2 3 3 2 0 2 1 1 1 6 4 6 10 11 9 9 7 10 8 7 5 4 4 5 10 11 11 11 11 11 11 11 11 12 12 12 12 12 12 13 13 13 13 13 13 14 14 14 14 14 14 14 14 14 13 14 14 14 14 14 14 14 14 14 14 14 13 13 13 13 13 12 12 12
0 2 0 2 1 1 1 3 6 3 7 4 2 4 5 8 7 5 6 2 2 3 1 1 3 3 2 4 2 0 4 3 2 8 9 12 10 9 8 9 11 8 7 5 4 3 6 10 11 11 11 12 11 11 11 12 12 11 12 12 12 13 13 13 13 13 13 13 14 14 14 14 14 14 14 14 14 14 14 14 14 14 14 14 14 14 14 14 14 14 13 13 13 13 13 13 13
2 0 1 5 1 1 2 5 6 3 7 5 2 3 8 10 7 7 5 1 2 0 3 2 4 4 3 2 1 1 1 1 6 11 12 11 11 9 7 10 11 9 8 6 4 4 4 9 11 12 12 12 12 12 12 12 12 12 12 12 12 12 12 13 13 13 13 14 14 14 14 14 14 14 14 14 13 13 13 13 13 13 13 14 14 14 14 14 14 14 14 14 14 13 13 13 13
1 2 0 1 2 3 2 7 1 6 4 6 4 4 6 5 4 6 6 3 4 4 4 4 3 2 1 3 1 1 2 4 8 8 8 10 9 7 9 9 11 12 8 7 4 4 4 8 11 13 12 12 12 13 13 12 12 13 13 13 13 13 13 13 13 13 13 14 14 14 14 14 13 13 14 13 13 13 13 13 13 13 13 13 13 13 13 13 13 13 13 13 13 13 13 13 13
1 2 1 1 0 3 3 7 4 7 3 1 2 3 7 5 7 3 6 4 4 5 1 6 1 3 1 1 2 2 5 7 11 13 9 9 6 7 8 9 10 11 10 8 6 4 4 5 11 12 13 13 13 13 13 13 13 13 13 13 13 13 13 13 13 13 13 13 14 14 14 14 14 13 13 13 13 13 14 14 14 14 14 14 14 14 14 14 14 14 14 13 13 13 13 12 12
1 0 1 2 3 3 5 3 5 7 7 3 0 1 2 5 3 2 3 4 2 5 7 8 3 6 1 1 1 0 9 7 7 8 9 6 5 7 9 8 9 9 10 9 7 5 5 4 4 9 13 14 13 13 13 13 13 13 13 14 14 14 14 14 14 14 14 13 13 14 14 14 14 14 14 14 14 14 14 15 15 15 15 15 16 16 16 16 16 16 16 16 15 15 14 14 13
1 0 1 1 3 1 3 3 7 5 3 1 2 1 0 4 3 5 4 4 5 6 2 9 4 5 3 3 1 2 8 9 7 8 8 6 6 7 6 8 10 10 10 9 8 7 6 5 4 4 7 13 12 13 13 13 13 13 14 14 14 14 14 14 14 14 14 14 14 14 14 14 14 15 15 15 15 15 15 16 16 17 16 16 17 17 17 17 17 17 17 17 17 17 17 16 15
1 1 1 3 0 2 3 5 4 4 5 1 1 0 0 1 2 3 2 3 6 7 4 11 3 4 2 3 1 6 8 8 10 8 6 7 6 7 7 6 8 9 8 9 9 8 6 5 5 5 6 6 6 8 11 13 13 14 14 14 14 14 14 14 14 14 14 14 14 13 13 13 13 14 15 16 16 15 14 14 15 15 15 14 14 15 15 15 15 16 16 16 18 18 18 18 18
1 1 0 0 3 1 3 1 5 3 4 1 2 1 0 2 0 0 2 3 4 2 2 3 3 5 5 8 5 9 12 11 11 9 7 7 7 7 6 7 7 7 8 9 8 8 7 6 6 5 5 6 6 5 5 7 13 13 14 14 14 14 14 14 14 13 13 12 12 13 13 12 12 12 13 13 14 13 11 10 13 14 13 13 13 14 14 14 15 15 16 16 17 17 18 18 18
2 1 1 0 3 1 6 2 2 3 3 3 3 3 1 2 1 1 1 1 1 2 2 5 2 3 2 8 4 7 13 13 12 9 9 8 6 5 6 6 6 6 7 9 9 8 8 8 7 7 7 7 5 5 6 5 9 12 13 13 14 14 14 14 13 12 9 8 9 11 11 8 7 6 8 6 9 9 8 5 10 12 12 12 14 14 14 14 14 15 16 16 16 17 17 17 17
2 4 1 1 7 2 5 1 0 3 2 2 1 1 2 1 2 0 0 0 2 1 1 1 4 1 2 2 2 10 13 14 11 10 9 7 7 6 6 6 6 5 5 7 9 9 9 10 9 8 7 8 7 6 6 5 6 10 9 11 12 13 12 12 11 9 7 7 6 7 7 5 4 4 3 3 5 2 3 3 9 11 13 13 14 14 14 14 15 15 16 17 17 17 16 13 13
3 1 2 3 5 1 4 3 2 1 1 2 1 4 3 1 1 1 1 1 1 0 4 2 2 4 1 1 6 12 15 16 13 15 11 9 7 7 8 7 7 10 8 8 8 9 10 9 10 9 8 9 8 7 5 5 5 6 5 5 5 6 8 7 5 4 4 3 6 6 5 5 4 3 2 4 2 1 1 5 9 12 13 13 14 14 14 14 15 15 15 17 17 16 15 7 7
3 2 2 7 4 7 3 2 4 0 2 3 5 4 5 6 5 1 1 3 3 4 4 2 4 1 5 6 9 13 14 13 14 14 16 15 12 14 12 9 9 7 8 8 9 11 10 9 8 9 9 9 9 7 6 6 6 5 5 5 5 6 5 5 4 4 4 4 5 6 6 5 4 4 3 3 3 5 5 9 10 12 13 13 13 14 14 14 14 14 15 16 16 14 8 7 7
4 3 5 7 7 4 5 3 1 1 2 1 0 2 4 2 4 1 3 6 1 8 6 2 7 8 6 6 8 12 13 14 13 14 15 16 14 14 12 12 11 12 12 11 11 8 9 9 10 9 10 10 10 8 7 6 6 5 5 5 5 5 5 5 4 4 4 5 6 5 6 5 4 3 5 8 6 4 5 6 8 9 10 11 11 7 10 11 12 12 13 13 8 6 6 6 6
2 3 5 6 4 1 5 2 1 0 1 1 0 0 1 3 4 4 3 2 9 10 9 11 13 13 11 11 11 11 13 13 12 12 14 14 13 10 13 15 16 15 11 8 6 9 11 10 9 9 10 10 10 9 8 7 6 6 6 6 5 6 6 5 5 4 4 5 6 6 5 5 4 4 4 5 5 4 3 3 3 4 4 5 6 5 5 5 6 6 5 6 5 5 6 6 6
3 9 8 7 5 5 9 4 4 1 3 1 0 2 5 1 2 5 5 9 13 9 10 11 11 11 13 13 14 12 13 15 15 15 16 16 17 15 11 8 5 4 6 9 11 10 11 11 11 10 10 9 10 10 9 8 8 8 7 7 6 6 6 6 6 5 4 5 5 4 5 6 5 4 4 4 4 4 4 4 4 5 4 5 4 6 5 5 5 5 4 5 5 5 5 5 4
6 4 5 8 7 5 4 3 3 2 0 1 1 3 0 2 4 4 9 15 14 4 6 10 11 11 14 17 15 13 14 16 17 18 18 16 15 14 14 12 12 11 11 13 11 10 10 10 10 10 10 9 10 8 7 8 8 7 7 7 8 7 6 6 6 6 5 4 4 5 7 6 6 6 5 4 4 3 4 4 5 5 5 6 5 6 5 5 5 4 5 4 5 5 5 5 5
9 10 1 6 4 7 7 8 6 4 6 5 3 1 2 3 7 3 7 17 15 5 5 5 6 5 9 12 16 19 20 20 20 21 20 22 21 21 18 16 14 9 9 11 11 11 11 13 11 11 10 10 9 8 8 8 7 8 8 8 7 7 7 7 6 6 5 6 4 6 6 6 6 6 5 5 4 4 4 4 5 5 5 6 5 5 5 4 4 3 3 4 5 5 6 6 5
6 8 4 6 4 6 5 4 4 5 6 5 1 3 10 7 7 4 13 16 8 9 6 8 5 4 9 15 16 16 15 15 16 16 11 11 11 10 8 7 8 9 12 12 11 12 13 12 12 13 11 11 10 10 9 8 8 8 7 7 8 7 7 7 7 6 6 5 4 4 5 6 6 6 5 4 4 4 4 4 5 5 5 5 5 4 3 3 3 3 4 5 5 6 6 6 6
6 9 2 4 5 5 6 7 8 7 4 3 3 10 11 6 6 12 22 19 11 5 6 10 9 6 9 13 16 16 16 17 17 13 18 14 9 11 12 12 11 14 16 13 13 13 12 12 14 15 13 12 11 10 8 9 8 9 8 8 8 7 7 7 6 6 6 6 5 4 5 6 6 6 6 4 6 5 4 4 5 5 5 3 4 3 2 2 3 4 4 4 5 6 6 6 6
2 3 3 5 8 6 5 6 9 4 4 5 7 10 9 1 5 13 10 15 6 8 11 9 8 12 11 10 12 15 17 18 19 17 8 8 10 13 14 13 13 16 12 14 13 12 12 13 13 13 12 11 9 10 9 10 8 9 8 8 7 8 8 8 7 7 6 6 6 5 5 6 6 5 6 6 5 5 4 4 5 5 5 4 3 3 2 3 3 4 3 4 5 5 5 6 6
3 2 7 10 7 6 10 8 15 3 7 9 9 10 4 3 3 17 24 3 5 8 10 10 9 11 11 11 12 12 14 16 14 10 16 14 15 15 15 16 17 13 14 16 13 11 12 15 14 13 13 12 11 10 10 10 9 9 8 8 8 7 8 7 7 7 6 6 5 5 5 6 5 5 6 5 6 5 4 5 4 5 3 3 3 2 2 2 3 3 3 3 4 4 5 5 5
1 2 6 11 5 8 14 11 13 4 9 7 6 2 9 4 9 24 22 8 4 5 7 9 12 12 11 10 10 9 14 14 10 12 17 18 16 14 17 17 16 15 12 14 13 13 16 14 14 14 13 12 13 12 11 9 9 8 9 8 7 8 8 7 7 7 7 6 5 5 6 6 5 6 6 6 5 5 4 4 5 4 3 3 2 2 2 2 3 4 4 3 4 4 4 5 4
1 0 2 11 8 7 21 4 12 7 5 11 8 5 9 14 20 21 16 7 6 7 10 9 10 11 11 10 10 12 10 8 12 17 16 15 14 15 17 16 15 14 11 10 12 15 13 10 10 11 13 14 13 10 9 9 9 8 8 7 7 8 7 7 7 7 7 6 6 5 5 5 6 5 5 5 6 6 4 5 5 4 3 2 2 1 2 2 4 4 4 5 4 4 5 5 5
4 2 1 7 5 9 9 3 2 4 3 12 7 6 12 13 14 11 11 11 9 11 13 12 10 9 10 10 11 13 14 13 18 18 16 15 13 12 15 11 13 12 8 10 17 17 14 13 11 11 13 13 13 11 10 10 9 9 9 8 8 8 7 7 7 7 7 7 6 6 5 6 6 6 5 6 6 6 6 5 5 5 3 3 2 1 2 3 4 4 3 4 3 4 3 4 4
2 2 7 3 7 9 14 4 2 6 0 5 7 5 14 19 15 10 8 7 8 12 13 12 12 11 10 10 12 13 15 12 14 14 15 14 12 12 13 14 14 13 15 15 13 12 14 13 13 12 13 14 13 12 10 10 10 9 8 8 8 8 8 7 7 8 7 6 6 6 5 6 6 6 5 5 7 6 6 6 5 4 4 3 2 1 3 4 4 3 2 3 4 4 4 5 5
2 8 7 8 3 9 9 7 5 9 4 4 13 10 6 13 12 14 6 8 8 11 12 10 12 13 12 11 11 12 12 10 10 14 14 12 12 12 13 13 15 17 15 13 15 14 14 14 14 14 16 15 13 11 9 8 9 9 9 9 9 8 8 8 7 7 7 7 7 6 6 6 6 6 6 5 6 6 6 6 5 5 4 3 3 3 3 3 2 2 2 2 2 2 4 5 6
7 1 7 6 8 5 6 5 1 4 11 7 9 7 12 13 4 6 6 3 6 9 12 12 11 11 12 11 12 13 12 12 14 16 15 12 13 14 13 14 15 15 13 14 14 16 16 15 14 13 12 13 12 12 11 10 9 8 7 8 8 8 7 7 7 8 8 7 7 7 7 7 7 6 6 5 6 6 6 6 5 5 4 4 3 3 3 2 4 4 2 1 1 2 3 4 6
5 2 5 7 6 10 14 7 2 5 4 6 7 11 15 16 13 12 14 6 4 9 12 13 13 12 12 11 13 14 14 14 18 16 11 13 13 13 12 13 13 13 12 14 14 13 11 12 11 12 13 13 11 11 10 9 8 6 6 7 7 7 6 6 7 7 7 7 7 8 8 7 7 7 6 6 7 6 6 6 5 5 4 4 4 4 3 3 3 3 2 1 1 2 3 4 5
7 8 9 6 7 8 11 10 3 10 5 6 9 12 16 19 19 16 15 15 11 11 8 9 11 12 12 12 13 13 13 16 19 9 8 11 13 13 12 12 12 13 12 13 14 13 13 12 10 10 12 12 10 10 9 9 8 9 9 6 6 6 7 7 7 8 7 8 8 9 8 8 7 7 7 6 6 7 6 6 5 5 4 4 5 4 4 4 3 2 0 0 2 2 2 3 4
10 7 7 12 12 12 13 12 6 6 4 10 14 17 16 17 18 17 16 13 11 14 13 12 13 13 14 14 14 16 14 19 12 7 9 13 14 13 12 11 11 11 12 14 14 15 15 16 15 16 14 14 13 12 12 12 12 9 7 11 11 10 10 8 8 8 8 8 9 9 9 8 8 8 7 7 7 7 6 6 6 5 5 5 5 5 5 4 3 2 1 0 1 2 2 2 6
12 12 10 13 6 15 14 10 2 4 6 5 11 15 16 17 18 18 10 6 13 16 16 15 17 15 15 16 17 17 19 12 4 4 6 8 9 10 9 10 10 13 11 13 16 16 15 15 17 15 12 13 14 15 14 13 13 15 14 13 11 10 10 10 10 9 9 8 9 9 9 8 9 8 7 7 7 7 7 6 6 6 6 6 5 5 4 3 3 2 1 1 0 1 1 2 5
10 11 11 9 10 13 14 8 7 4 5 13 9 13 15 16 18 17 13 12 13 14 16 20 18 13 14 15 17 18 15 14 7 8 7 10 11 11 11 11 12 16 16 17 15 14 15 15 14 14 14 15 14 14 13 14 10 8 9 8 11 8 5 6 7 7 7 8 9 9 8 8 9 8 8 8 7 7 7 7 7 6 6 5 5 5 4 4 3 2 2 0 1 1 1 1 2
8 10 8 13 9 6 14 5 1 3 8 6 5 10 11 8 12 16 16 13 13 15 16 18 18 15 17 19 18 16 15 12 12 11 10 8 10 11 10 11 12 11 12 11 13 16 14 14 14 15 15 14 13 14 13 10 9 6 5 6 5 6 7 7 6 6 6 7 8 8 8 9 9 9 8 8 7 7 7 7 6 6 5 5 5 5 4 3 3 2 2 1 1 2 2 1 2
11 13 10 10 11 14 13 11 2 2 4 4 9 12 12 10 15 15 16 15 15 16 15 17 18 14 17 17 14 15 18 14 12 7 5 8 10 14 16 14 11 13 14 16 16 16 13 17 17 16 15 15 13 13 13 10 9 7 6 6 5 5 4 5 6 6 8 8 8 9 11 10 10 9 8 8 8 8 6 6 6 5 5 4 5 5 5 5 4 3 3 3 1 1 1 0 1
13 8 10 17 15 13 13 10 7 5 6 4 4 10 12 9 18 20 14 4 8 11 14 18 19 17 14 17 22 19 13 11 13 12 13 14 15 11 8 10 14 13 15 16 16 17 16 15 15 15 12 12 13 14 14 12 12 12 11 11 11 9 9 10 14 15 13 13 15 10 8 9 9 9 8 8 8 7 7 6 5 6 5 6 6 6 5 4 4 3 4 3 2 2 1 1 2
11 7 13 14 12 11 7 7 2 7 7 4 2 8 18 6 8 10 9 8 13 8 10 16 15 14 12 15 18 17 12 9 6 6 8 10 10 11 12 14 15 15 15 13 14 15 15 15 15 16 14 13 12 13 14 12 12 12 15 15 14 15 14 12 10 9 11 9 7 11 10 9 10 10 9 9 8 8 7 7 6 6 6 5 4 5 5 5 4 4 3 3 3 3 2 1 3
11 1 6 6 7 7 7 5 7 10 2 3 0 2 7 20 10 7 12 13 12 12 13 12 13 13 13 15 16 15 12 9 10 11 12 13 15 17 18 17 15 17 13 12 13 13 16 16 15 15 13 13 12 12 15 14 15 14 13 13 12 13 14 13 13 11 9 8 10 10 9 9 9 9 9 9 9 8 8 7 7 6 6 5 5 6 6 5 5 3 3 3 3 4 4 2 3
4 1 4 2 4 3 0 0 2 3 5 11 8 1 7 16 6 15 15 12 11 15 16 15 15 15 14 15 15 15 13 10 11 12 13 14 15 16 14 15 14 10 11 14 14 14 13 12 14 13 13 13 12 15 16 15 14 14 14 12 12 10 9 7 7 6 9 9 11 9 9 9 9 8 9 9 9 9 8 8 7 6 6 6 5 5 4 5 5 4 3 3 3 3 3 2 2
3 2 5 4 3 3 1 0 1 4 3 16 6 8 7 23 15 8 6 12 13 14 17 17 15 16 16 15 14 14 11 7 9 13 13 14 15 15 13 10 9 12 11 10 10 10 11 11 13 15 15 13 13 15 16 16 15 13 14 14 15 11 8 6 7 9 9 9 11 10 9 9 9 8 8 8 8 8 8 7 7 7 7 6 5 5 5 5 4 4 3 3 3 2 2 3 4
1 3 2 5 5 3 3 4 2 5 9 10 12 10 9 15 5 11 9 7 13 13 8 10 11 11 13 14 12 11 12 10 10 11 10 11 9 10 8 12 13 9 8 10 11 11 11 12 14 16 16 13 14 16 17 18 15 14 15 15 15 14 12 11 11 10 9 9 11 10 10 9 8 9 8 8 8 8 8 8 8 7 6 6 6 6 6 6 5 4 4 3 3 3 3 3 3
2 1 2 5 7 5 3 3 2 3 14 3 12 15 13 12 4 2 6 1 11 13 11 12 12 14 14 15 10 11 11 10 9 8 8 7 7 7 7 10 12 13 10 11 11 11 12 13 13 16 15 16 15 16 17 17 16 16 14 15 16 15 15 13 15 15 14 14 13 12 9 8 8 7 8 8 8 9 9 8 8 7 7 7 7 6 5 5 5 4 3 4 3 3 3 2 3
4 5 4 2 6 5 3 3 2 6 13 2 8 10 2 23 10 2 4 3 3 6 9 12 13 14 14 13 10 11 9 6 8 9 8 9 12 13 13 13 10 12 16 17 15 14 13 13 15 17 18 17 16 16 18 18 16 16 16 16 15 14 15 15 15 14 14 14 13 12 11 11 9 9 10 10 10 12 10 9 9 9 7 7 6 6 5 5 5 5 5 4 4 3 3 3 4
8 8 6 4 4 3 4 5 4 5 6 5 7 5 13 13 4 9 14 12 10 12 12 12 13 14 14 13 12 9 7 9 10 10 11 12 13 13 14 14 15 15 15 15 15 15 14 14 16 18 20 16 15 15 17 17 19 18 16 16 15 13 15 15 14 14 14 13 12 14 14 14 14 15 14 14 13 12 10 9 9 8 7 7 7 7 6 5 6 6 5 4 3 3 2 3 4
13 5 12 12 8 4 3 4 11 11 10 3 2 7 8 6 5 4 14 15 14 11 14 14 12 11 11 9 6 5 5 6 5 9 12 14 14 14 14 15 14 13 14 14 14 15 14 15 17 19 17 16 17 18 16 19 18 17 16 15 14 13 14 13 13 12 13 14 12 13 13 12 12 12 13 11 11 12 11 9 9 9 8 8 7 7 7 6 5 5 4 4 3 3 3 3 4
3 4 2 1 9 8 10 10 8 6 5 9 3 8 4 9 2 4 4 6 8 6 10 8 11 10 8 7 10 10 8 7 6 8 9 9 11 10 9 10 11 11 12 13 14 13 15 17 18 19 20 19 18 17 18 19 18 15 15 16 17 15 12 11 10 10 11 13 14 14 13 12 11 10 9 10 11 11 11 11 10 9 9 8 8 8 7 6 6 6 4 4 3 2 3 4 4
4 8 8 14 3 9 6 4 4 1 2 16 4 7 10 7 15 10 17 13 11 6 9 8 10 12 11 11 12 9 7 7 7 8 10 11 7 7 9 9 10 10 10 14 18 18 21 18 16 18 17 14 17 19 19 17 16 14 17 17 15 14 15 16 16 15 14 11 11 11 11 11 9 9 9 9 11 10 10 10 10 9 9 8 8 7 7 6 6 5 5 4 4 3 4 5 4
8 4 8 3 3 4 4 5 2 3 10 12 10 17 14 6 15 3 5 2 6 6 9 10 13 14 14 14 12 9 10 10 9 7 6 6 8 10 11 10 12 14 16 16 18 16 15 16 17 19 18 19 19 18 17 16 17 18 17 17 17 18 17 16 13 13 11 11 10 9 8 9 10 9 9 9 10 10 9 10 9 9 8 8 8 7 7 7 6 5 5 4 4 4 4 4 5
5 5 1 6 3 2 3 4 4 6 10 8 10 17 15 11 19 9 9 6 7 11 14 14 13 13 12 12 12 8 5 4 6 9 9 9 10 12 13 15 15 14 14 13 11 9 9 11 14 15 19 22 21 17 14 12 13 13 14 17 18 16 14 13 11 11 11 12 13 11 12 11 9 10 10 10 10 10 10 9 9 9 8 8 7 7 7 6 6 5 4 5 4 4 5 5 5
1 2 1 0 1 4 5 8 3 4 15 10 15 12 16 11 5 10 6 8 8 10 7 9 13 13 13 15 16 7 6 9 9 9 10 10 12 13 13 14 14 16 17 16 14 11 14 16 14 14 14 11 10 13 16 17 18 15 14 12 13 14 13 13 13 13 13 14 13 12 12 11 13 11 11 12 11 12 11 11 9 9 8 8 7 7 7 6 6 5 5 5 5 5 5 5 4
2 2 4 2 1 3 3 2 5 7 9 8 9 12 11 13 2 1 4 3 4 7 9 9 11 13 13 10 8 7 8 9 10 10 11 12 12 11 11 11 11 7 4 4 9 14 16 11 11 14 16 17 16 17 15 16 14 14 15 16 16 14 15 13 12 13 13 12 12 12 12 12 10 12 12 12 12 12 11 10 10 9 9 9 8 7 7 6 6 5 5 5 5 5 5 5 4
10 13 13 14 9 4 5 11 2 3 6 8 8 15 6 16 1 5 0 2 2 4 6 9 10 11 10 11 13 11 10 10 11 10 8 8 8 9 8 6 3 5 7 9 11 10 9 13 17 15 13 12 14 15 16 17 15 14 14 15 14 12 11 9 12 12 14 13 13 13 12 11 14 12 13 13 13 11 10 11 10 10 9 9 8 8 7 7 7 7 6 5 6 6 5 5 4
Wind_Direction
320 311 289 266 269 263 49 7 52 305 58 259 282 264 238 14 227 49 45 30 91 290 132 58 49 33 113 181 151 141 17 141 198 129 212 179 184 156 160 164 132 122 127 135 98 64 41 92 106 106 98 87 85 87 87 88 88 88 89 88 87 85 85 82 79 79 80 79 78 79 79 77 75 72 70 71 69 64 59 55 51 51 50 47 48 53 58 57 54 59 62 59 50 43 40 38 40
296 321 299 257 261 68 294 120 101 347 28 324 266 175 240 268 52 160 161 145 196 146 187 103 84 99 94 136 126 111 26 8 311 129 67 183 127 129 187 178 139 139 134 131 112 82 60 117 122 117 114 110 107 103 105 100 97 94 94 92 90 89 89 88 87 85 84 81 79 78 76 75 75 75 72 70 70 69 64 61 58 53 50 49 49 50 47 51 52 54 53 52 52 47 41 35 33
319 356 340 14 16 91 267 50 300 165 80 274 279 210 294 58 109 28 244 140 155 152 141 64 95 61 14 54 81 249 237 136 87 108 114 161 136 208 212 176 111 116 122 128 113 100 89 106 114 120 119 119 118 114 110 107 102 99 97 96 94 92 90 88 86 86 86 84 83 80 79 77 76 75 72 71 70 67 64 60 55 53 51 49 50 50 51 51 48 49 50 54 51 47 45 41 36
319 249 347 37 355 27 62 16 108 160 238 217 287 286 178 155 173 133 163 165 169 119 55 26 70 246 105 47 158 81 103 208 173 151 144 190 196 171 186 147 119 117 116 121 118 121 127 115 117 121 120 125 125 123 120 114 110 106 102 99 96 93 91 89 89 88 83 80 77 76 75 74 74 72 70 68 65 63 60 57 54 49 48 49 50 50 50 51 49 48 47 49 49 44 40 37 36
7 310 144 72 107 357 95 200 191 115 251 205 249 269 203 168 156 150 150 186 336 94 95 140 83 346 156 148 168 161 200 96 106 168 126 183 163 173 166 148 124 120 120 120 120 127 140 128 129 129 129 127 127 125 123 120 113 105 100 96 94 91 89 87 86 82 79 78 76 75 75 74 72 70 67 65 63 61 59 57 55 52 48 47 47 50 49 49 47 46 45 44 44 41 36 33 30
333 8 336 92 120 178 44 355 319 261 237 187 282 250 177 170 150 167 138 57 11 40 151 92 158 205 38 335 244 144 162 155 180 144 147 200 162 166 164 150 120 119 123 120 124 125 143 132 131 130 128 124 122 120 116 112 108 104 101 98 95 91 89 87 84 82 81 78 77 75 75 74 73 70 68 64 62 60 58 56 54 52 49 46 44 44 46 45 45 44 41 38 34 32 28 25 22
329 32 3 21 352 63 169 194 248 232 270 175 234 213 168 185 155 130 131 67 351 15 354 151 122 87 66 210 43 42 26 237 126 186 168 163 158 165 163 135 117 122 126 126 127 138 144 132 130 128 124 121 117 114 111 108 105 103 101 98 96 94 91 89 87 85 82 81 80 79 77 75 74 73 70 66 62 60 58 55 54 52 50 47 45 42 42 42 41 39 37 34 31 27 22 19 17
69 100 262 96 283 51 257 229 251 163 274 172 217 151 170 161 154 125 175 111 227 139 251 233 128 107 244 142 165 279 351 2 150 119 138 148 158 170 155 139 128 134 128 128 129 141 128 126 128 126 124 122 119 115 114 111 108 106 104 102 99 97 94 91 89 86 84 82 80 79 77 76 75 73 72 69 66 63 59 56 53 51 49 47 45 43 42 41 41 38 35 33 31 26 22 18 17
329 75 352 69 320 9 325 249 254 230 262 297 280 198 176 162 162 129 155 212 87 179 166 169 142 113 254 141 147 288 359 31 110 129 144 152 162 166 153 142 134 136 133 129 124 103 115 131 133 130 129 128 127 125 122 118 116 114 111 107 104 101 99 95 93 90 89 87 84 81 79 76 74 73 72 70 68 66 64 61 58 55 53 50 48 45 42 40 39 36 32 29 26 24 20 18 18
338 97 298 154 140 268 295 281 213 250 236 219 179 184 161 174 160 141 153 111 182 141 209 168 155 160 137 189 323 232 205 169 121 122 153 158 163 155 147 136 136 137 138 135 125 113 116 131 134 135 134 134 133 131 127 123 122 120 116 113 110 106 103 101 97 94 92 89 87 85 82 79 77 75 73 71 69 68 66 63 59 56 53 52 51 48 46 43 42 40 36 31 29 24 22 21 22
319 9 153 51 25 243 244 276 247 306 292 288 228 207 176 161 142 150 159 169 177 151 175 144 15 230 110 264 184 285 134 150 141 156 168 166 154 149 139 138 139 140 140 139 134 122 115 127 138 139 139 137 135 132 128 127 126 122 119 116 113 110 108 105 102 99 95 91 89 87 84 80 78 76 72 69 66 63 60 59 55 53 50 47 45 43 40 40 39 37 35 34 33 31 29 30 28
6 161 21 141 219 196 243 231 281 270 289 325 267 262 212 131 112 128 181 123 178 143 160 166 212 145 206 241 269 68 139 161 164 158 165 154 135 140 136 136 136 138 141 143 137 133 128 120 124 136 137 135 134 131 130 128 126 125 123 120 117 115 113 110 108 104 101 97 94 90 85 81 77 73 70 65 61 57 54 52 49 47 45 42 40 36 34 33 31 29 28 29 29 29 31 32 30
151 185 86 100 238 166 254 313 261 289 297 295 209 281 346 104 176 195 200 155 162 141 232 202 139 119 218 198 317 162 174 186 166 164 162 144 141 132 124 131 136 139 144 145 141 146 141 135 132 128 131 126 125 128 128 130 131 131 128 124 120 119 117 115 113 110 106 101 97 92 87 81 75 70 64 59 54 50 48 46 45 42 40 39 36 34 30 29 28 25 25 24 24 24 24 24 24
130 188 122 256 262 249 267 256 289 302 299 251 279 258 2 122 247 183 124 170 185 170 231 192 135 147 186 71 227 206 210 180 161 162 150 137 132 124 125 132 136 143 147 150 153 154 152 150 147 137 121 114 119 124 128 132 134 132 129 126 125 123 121 119 117 114 109 104 97 92 87 80 73 69 63 58 53 48 45 46 48 46 45 43 41 37 34 33 32 30 28 29 27 24 21 19 16
301 213 85 158 296 20 247 166 250 263 265 219 236 135 174 237 163 75 169 196 249 225 305 125 170 99 244 172 262 207 190 175 156 155 137 129 128 127 130 140 145 146 153 157 159 158 161 156 156 147 136 125 126 127 126 133 135 132 131 130 128 125 121 119 116 114 112 107 99 92 87 83 77 73 69 65 62 57 50 43 56 52 51 50 46 42 37 37 35 33 32 32 29 27 22 18 14
171 75 83 288 271 204 276 245 264 208 265 197 226 138 108 300 353 126 263 180 224 307 112 202 234 198 206 174 226 190 154 149 153 142 134 128 121 128 137 147 155 163 161 163 164 169 164 162 167 160 149 143 140 137 133 132 137 139 137 133 129 124 120 117 116 112 108 106 108 100 89 79 75 78 90 85 78 72 62 53 63 58 56 57 49 44 41 40 37 35 32 30 28 26 21 17 11
58 81 284 1 286 153 262 189 174 293 246 269 282 128 166 255 284 102 122 93 133 233 223 228 194 94 203 212 175 122 135 139 138 138 136 135 137 146 150 156 164 179 178 178 172 172 169 168 173 164 161 153 147 141 138 139 147 142 134 132 130 128 124 121 119 119 119 123 123 128 109 98 96 92 99 126 118 116 93 45 65 63 61 59 51 46 42 41 37 35 34 29 26 21 15 8 3
66 181 138 262 219 241 231 222 219 220 159 248 259 217 145 272 304 258 75 282 162 185 208 283 298 21 326 85 112 129 139 145 151 149 162 158 159 162 174 185 173 189 184 187 188 173 172 176 175 169 158 158 152 148 150 156 152 141 140 134 132 131 127 123 124 130 127 102 132 130 136 128 127 137 146 139 146 137 98 80 67 66 62 60 51 46 44 41 37 34 33 29 25 19 13 7 358
129 195 128 230 195 234 178 236 264 202 269 194 218 225 164 233 149 266 189 278 218 253 249 203 225 357 55 91 120 135 147 153 160 166 167 171 178 180 183 182 188 180 197 191 193 182 176 173 173 166 161 159 152 154 159 164 157 152 148 149 149 141 133 125 129 124 110 117 127 128 131 137 143 147 152 158 134 117 88 77 74 68 63 60 53 46 41 39 35 31 31 28 24 16 12 6 2
234 141 239 245 217 245 293 257 245 211 187 217 95 256 176 248 152 112 208 243 246 221 229 217 216 220 181 152 151 152 159 166 172 173 180 184 187 185 180 187 192 197 194 189 183 179 174 175 176 167 161 160 155 161 163 168 167 159 159 160 152 141 135 133 132 132 122 120 128 129 122 130 125 137 114 105 92 84 79 75 75 73 62 60 62 50 38 32 31 25 27 29 22 17 10 5 2
262 130 207 233 229 258 268 265 225 246 81 188 179 354 318 268 204 153 215 299 251 242 220 199 210 215 187 174 169 166 169 173 182 187 188 193 198 198 195 191 190 193 190 172 172 185 181 175 172 171 165 164 160 164 167 173 172 161 163 164 156 146 140 137 142 139 126 126 133 140 136 127 123 119 108 107 110 107 104 99 83 82 75 60 66 58 45 30 28 21 21 24 25 17 12 2 359
125 210 216 222 278 303 266 243 200 155 153 127 322 318 249 250 102 206 162 220 252 209 230 216 223 214 174 175 186 175 177 181 187 191 197 195 196 200 201 208 213 180 162 181 191 186 186 178 174 171 166 169 169 170 172 172 166 167 170 172 164 163 151 151 148 143 133 133 143 152 125 124 126 119 108 110 113 115 100 93 85 85 69 64 60 60 47 34 23 21 18 21 16 16 10 359 351
246 262 240 229 229 234 274 248 248 167 215 197 271 234 317 230 252 229 196 220 243 166 196 210 218 220 188 179 168 182 184 189 191 196 197 201 204 205 201 197 189 187 185 196 187 188 182 181 175 169 172 171 175 174 170 170 173 173 170 171 164 167 160 149 150 147 144 142 140 148 132 132 131 126 115 116 117 112 94 89 80 79 73 61 57 64 47 32 28 18 14 17 9 9 359 354 346
208 242 274 273 235 237 253 276 239 226 207 232 202 43 265 257 270 222 214 237 240 227 209 199 200 217 163 161 181 185 190 192 198 201 197 199 198 200 196 193 196 189 186 190 188 185 183 185 175 172 175 172 175 176 173 173 173 170 170 165 163 165 154 152 154 151 139 136 143 143 137 139 137 128 129 123 131 110 100 97 86 81 73 63 65 69 57 31 20 15 12 9 13 7 356 346 343
213 260 248 269 273 256 285 274 255 239 231 230 328 267 247 217 233 351 249 249 238 236 232 253 209 118 161 177 187 197 199 205 208 209 211 219 213 210 206 205 191 182 194 193 186 185 188 181 173 177 174 176 176 173 176 174 169 167 166 162 166 165 153 158 155 143 139 144 134 136 136 134 130 130 130 135 118 105 96 94 88 90 79 68 69 63 72 44 25 16 15 14 12 3 352 344 341
223 234 280 288 284 285 281 300 277 251 265 176 218 245 252 243 314 270 254 255 236 229 233 231 232 202 178 191 193 194 201 205 209 204 210 207 201 197 207 201 190 193 198 185 182 192 182 177 178 179 177 176 175 171 174 171 170 168 170 166 168 159 159 158 149 144 149 144 145 136 134 136 139 138 130 123 109 104 97 91 87 89 84 75 75 66 51 60 32 19 22 22 16 2 353 341 343
196 244 243 266 268 295 278 260 275 246 227 169 212 254 259 243 140 278 248 242 233 233 236 231 217 221 209 198 199 200 200 207 204 208 202 203 206 204 206 201 198 202 182 190 189 186 179 175 183 178 175 174 171 176 173 173 166 171 168 162 163 160 158 153 149 148 148 152 157 143 134 133 137 130 124 121 109 111 101 101 100 98 81 75 78 52 15 48 43 43 35 29 17 3 351 343 343
334 325 326 293 290 294 274 274 269 291 276 195 195 249 293 273 165 241 265 179 202 210 235 233 219 223 218 211 201 205 207 213 207 187 201 195 206 205 202 200 204 193 187 193 189 176 175 183 178 178 175 174 173 178 175 171 173 170 164 162 163 157 155 153 148 150 154 156 157 147 136 136 133 129 125 119 117 117 118 111 108 96 95 69 64 55 42 46 53 39 40 44 26 13 351 341 332
264 2 311 287 323 311 276 258 268 165 259 162 158 299 290 232 216 242 246 257 258 219 238 232 227 227 226 220 215 208 214 211 195 201 210 207 206 200 205 203 196 193 199 187 177 174 182 179 177 179 174 176 178 178 178 174 169 165 163 169 161 158 156 150 150 156 154 158 156 152 142 140 136 136 132 126 124 128 129 115 101 103 102 87 57 72 69 44 45 40 32 32 22 18 359 331 326
285 40 213 298 313 301 270 256 249 219 246 138 120 273 248 246 238 247 257 252 241 251 249 238 232 230 229 225 223 224 224 209 204 210 211 210 204 200 206 203 197 193 186 180 170 183 180 176 175 173 176 178 180 175 173 170 171 165 163 162 161 158 159 155 155 151 152 155 155 155 145 139 139 138 135 128 125 128 124 118 119 115 122 105 86 80 63 61 50 50 33 34 14 14 345 325 325
264 245 118 238 312 265 279 175 242 184 172 157 139 209 266 258 263 249 254 242 225 233 237 237 234 232 230 227 227 229 227 209 213 214 214 210 205 201 207 197 195 190 170 179 185 182 172 175 173 177 177 177 177 176 175 173 169 163 163 163 166 163 159 157 156 153 154 158 153 156 145 140 140 141 144 135 134 131 131 123 124 143 134 117 104 136 102 62 69 51 39 36 16 356 327 310 313
243 11 259 309 198 270 278 257 184 207 198 197 125 243 247 259 267 277 242 239 209 226 237 233 234 233 231 230 230 232 234 221 227 224 218 210 199 201 198 197 190 187 185 186 181 169 176 176 175 173 174 175 179 175 173 170 170 166 165 163 162 163 159 160 162 161 155 155 154 157 147 143 142 143 146 141 135 137 135 136 150 149 137 131 150 103 82 76 71 55 32 71 19 334 331 314 312
289 196 263 263 217 256 321 280 224 210 123 236 173 216 244 279 258 259 262 232 218 222 238 237 234 235 234 233 232 235 244 242 235 230 223 204 204 200 197 191 189 192 187 177 175 176 176 175 176 171 175 175 174 169 164 164 165 165 166 167 166 161 164 164 161 155 154 158 162 160 154 149 147 148 152 148 140 142 139 141 157 149 149 151 140 103 86 108 95 84 42 52 58 317 314 307 308
270 229 223 221 243 278 264 290 38 139 154 199 238 242 239 247 289 299 301 232 214 219 233 236 235 234 232 233 234 237 237 240 235 231 221 200 204 201 194 190 191 189 184 179 177 176 177 176 176 172 171 170 169 168 166 164 166 158 160 163 164 167 169 164 158 156 161 163 162 163 159 152 153 154 157 152 143 148 146 145 155 151 149 147 136 115 123 102 98 108 69 10 27 314 303 305 304
236 210 243 275 254 239 252 273 265 134 217 191 228 242 255 261 261 270 266 263 220 223 223 228 232 236 237 234 237 237 239 238 242 234 209 203 203 200 190 187 187 184 181 176 174 175 167 170 167 169 167 168 167 163 159 155 151 143 144 156 165 169 166 166 161 162 165 164 167 163 158 157 158 160 161 156 151 149 147 151 150 162 153 151 140 132 110 102 105 98 97 299 314 277 270 283 288
235 229 245 246 259 262 256 254 231 169 189 223 212 227 239 251 256 253 260 260 249 247 239 248 243 241 240 236 237 239 237 243 244 235 196 199 201 191 188 184 184 181 176 172 171 169 168 166 165 165 171 166 161 159 155 156 156 160 160 161 168 176 171 168 175 171 164 168 167 164 164 160 162 163 165 161 153 154 153 159 159 164 163 157 150 137 137 126 125 95 65 205 311 307 280 277 298
257 268 265 256 260 268 261 270 242 204 220 216 225 235 242 250 251 247 242 253 261 260 246 238 239 240 242 243 241 242 242 242 250 205 198 200 197 190 185 175 175 174 171 170 169 173 171 171 166 175 175 169 166 166 171 166 168 164 171 181 179 177 175 171 173 174 174 169 165 165 165 163 164 165 168 161 161 156 156 159 160 175 172 168 161 158 151 151 143 136 131 39 326 354 331 337 320
243 252 258 264 239 267 256 265 228 219 192 255 229 244 246 248 255 257 248 228 244 249 255 246 239 235 242 246 249 249 247 258 268 215 212 204 192 183 171 169 161 168 183 171 176 176 172 171 176 172 173 175 177 176 174 178 180 181 175 181 175 176 167 173 178 185 178 166 164 167 166 165 166 169 169 166 162 159 160 166 172 179 177 174 165 153 143 134 124 105 110 28 348 2 303 333 321
242 242 251 268 255 258 274 252 251 238 177 262 255 249 249 248 254 260 253 233 237 239 241 251 249 239 242 246 246 250 253 253 251 240 209 200 187 178 172 175 181 181 173 178 175 169 174 176 179 173 180 179 183 179 176 184 180 174 174 171 173 171 190 176 170 168 159 162 170 168 163 165 167 171 171 169 164 167 169 169 180 179 176 163 141 134 125 126 133 137 135 144 327 339 311 288 0
248 252 256 250 257 275 285 217 299 192 185 248 230 256 264 268 266 264 256 245 240 239 242 248 251 251 249 244 243 247 250 246 238 225 209 192 181 178 174 179 182 172 171 173 174 176 176 180 181 180 183 183 182 185 184 177 168 157 142 148 154 160 171 160 149 146 154 152 169 170 173 168 170 172 173 168 167 167 169 173 173 171 174 163 151 139 134 138 127 117 119 129 132 351 13 309 27
239 234 240 258 250 243 236 272 312 280 298 292 295 279 270 238 255 260 257 241 248 250 250 251 255 246 248 260 256 246 248 240 234 222 196 178 179 187 186 183 169 176 178 179 178 179 182 184 184 182 182 185 185 181 177 161 146 139 126 117 117 98 86 138 147 171 177 173 162 181 185 171 171 171 172 171 166 168 169 169 169 172 163 160 144 141 144 159 158 159 145 135 151 198 284 302 319
256 226 205 236 245 254 258 279 332 316 313 248 219 303 263 202 221 239 249 261 239 241 240 248 249 248 245 253 258 255 243 235 220 206 191 190 190 181 180 173 180 183 184 186 180 182 180 183 182 183 182 184 184 181 173 166 170 165 158 159 172 177 174 176 188 185 181 184 189 176 165 172 170 170 173 170 166 164 169 170 169 165 165 159 150 151 151 138 144 140 168 154 171 186 182 307 298
263 256 203 231 240 250 266 284 7 282 260 297 125 210 288 147 230 220 244 239 249 252 231 243 245 246 239 240 248 255 242 231 233 210 193 186 189 180 186 186 187 187 193 177 181 183 183 181 182 183 183 185 181 178 174 173 176 181 182 183 181 184 184 200 194 187 184 182 161 172 177 174 174 171 175 170 166 166 166 168 169 169 167 161 154 143 151 158 156 160 144 134 176 164 128 248 290
258 245 188 217 242 251 257 241 193 254 255 263 62 121 280 289 233 212 205 224 235 250 249 248 245 244 236 238 240 247 240 212 198 202 199 194 184 184 188 193 188 195 180 176 183 183 183 183 181 184 184 183 181 176 180 183 183 185 186 189 189 193 194 190 184 185 180 168 170 176 170 178 176 175 170 171 167 166 166 169 168 167 166 168 156 161 159 156 140 135 144 158 152 155 155 177 257
235 285 157 216 220 230 74 137 222 246 0 284 169 71 305 263 257 195 186 222 226 235 245 244 242 243 239 239 242 242 240 211 194 197 199 192 192 197 191 188 197 181 175 183 186 186 183 180 181 182 185 183 181 181 184 189 189 186 187 186 194 203 193 186 175 168 171 171 173 174 176 176 176 175 172 168 168 165 168 169 167 167 167 171 162 158 157 148 151 151 151 142 154 155 152 170 172
272 105 73 71 62 64 56 266 11 328 33 272 163 154 226 284 270 180 194 200 209 224 228 236 234 233 236 239 240 242 245 218 208 208 198 197 197 195 193 184 175 188 185 183 181 178 181 177 181 183 189 186 183 185 188 190 190 185 190 193 194 189 177 162 168 174 175 174 178 179 179 177 177 173 174 170 166 169 167 165 168 170 169 167 162 167 158 149 148 149 164 172 167 169 171 167 191
128 66 60 5 26 20 25 70 96 22 258 263 161 186 169 271 306 164 122 210 208 212 226 239 238 243 249 248 235 231 233 218 210 208 204 200 191 186 169 180 188 178 182 180 183 183 180 181 183 187 192 186 185 188 188 191 190 191 195 192 192 186 181 171 172 181 177 178 183 182 181 182 177 178 169 172 169 166 169 169 168 169 165 165 162 163 166 156 153 152 162 165 174 179 195 197 230
106 99 115 21 322 18 33 344 47 190 269 210 183 175 178 232 288 311 190 332 208 186 204 222 236 238 240 245 237 232 226 217 205 193 195 172 163 177 179 190 185 185 175 186 188 182 185 186 185 190 192 192 189 189 190 192 192 197 197 192 193 190 181 183 185 184 184 183 182 181 179 172 180 171 172 169 176 173 170 172 167 163 167 165 168 168 158 149 149 150 161 170 168 159 158 173 210
105 78 62 256 269 24 321 28 307 197 242 229 205 171 333 237 248 322 284 263 260 238 208 212 223 236 241 250 251 238 229 206 187 192 174 174 181 182 191 195 184 185 193 190 187 185 186 187 189 190 199 194 192 188 192 193 193 197 196 195 196 189 189 190 189 187 184 184 181 177 174 181 174 174 183 180 185 177 172 170 169 169 168 169 165 158 157 149 147 150 157 154 150 155 167 178 206
131 159 158 133 263 231 263 257 241 307 279 231 192 170 233 273 310 213 245 241 216 210 223 222 217 223 238 239 244 236 216 202 195 184 180 184 188 191 193 190 193 195 193 189 187 187 189 191 192 195 202 192 192 191 194 194 200 199 196 196 194 190 195 193 193 189 186 185 181 181 180 180 180 186 181 187 182 175 174 173 166 165 163 162 163 161 153 151 147 150 153 154 156 166 158 190 219
194 133 154 196 173 148 222 225 259 255 260 290 234 113 241 345 235 229 206 228 225 214 216 220 223 228 237 244 271 273 222 216 193 184 186 190 194 191 192 195 195 196 194 191 191 194 188 194 195 200 198 195 193 196 193 199 201 199 198 198 194 194 197 195 197 192 184 184 184 182 185 182 184 185 185 180 167 172 170 164 166 161 164 165 160 154 148 143 145 142 148 154 150 159 184 195 224
195 153 82 63 231 148 234 232 256 276 355 307 192 212 202 246 279 254 283 303 297 253 244 232 238 252 263 265 250 235 217 201 187 195 202 206 199 193 194 197 201 197 193 194 198 195 195 201 199 200 200 195 195 195 199 200 200 197 196 196 199 196 196 195 196 195 193 187 182 182 184 184 185 179 178 166 172 168 167 165 162 164 161 159 157 150 146 146 146 145 146 145 165 166 186 208 221
223 125 186 215 159 181 247 321 264 150 315 261 241 274 269 314 283 252 238 235 243 247 242 240 240 240 241 243 243 233 218 198 191 200 205 205 192 199 202 199 197 196 194 199 200 196 199 195 196 202 203 197 199 202 203 200 198 194 200 199 195 195 195 195 196 194 189 186 182 184 181 182 173 172 168 169 166 168 163 161 160 158 158 155 150 148 145 145 146 150 157 160 179 188 197 215 213
104 192 232 58 75 119 134 213 335 228 234 262 281 265 286 330 284 31 60 235 268 274 265 248 239 237 235 235 237 227 211 205 199 210 222 211 202 201 199 201 199 200 202 204 205 204 203 198 199 199 197 197 203 202 202 200 197 199 199 199 199 198 197 198 192 188 181 177 181 177 168 166 176 170 166 167 162 159 159 158 155 157 154 151 150 147 147 147 145 152 159 174 182 186 211 219 217
170 188 256 129 255 250 246 95 230 242 247 263 247 280 270 243 266 300 308 275 246 232 232 233 240 246 248 253 254 241 236 202 198 210 207 206 206 207 203 204 204 204 205 209 210 205 209 210 209 204 203 204 202 197 200 206 204 205 202 202 200 198 196 194 189 178 175 180 180 177 175 173 159 164 160 159 160 160 159 160 156 154 153 152 148 148 146 146 147 154 165 177 188 192 209 223 222
91 59 10 244 114 193 153 197 177 178 251 249 262 262 273 260 262 292 271 244 240 245 252 243 241 240 239 237 241 230 216 216 213 211 213 212 211 210 206 205 202 204 203 203 197 195 206 210 204 208 214 213 204 199 198 202 205 204 202 199 201 200 195 190 186 178 181 185 181 173 170 166 172 162 166 163 163 163 162 159 159 154 153 149 149 149 150 148 149 164 171 179 195 193 209 218 220
198 215 267 305 215 227 134 291 169 213 247 232 267 261 262 274 184 244 310 247 234 231 238 240 240 242 245 261 262 239 225 227 224 216 213 209 209 214 218 217 218 221 224 189 192 202 209 200 209 211 208 204 203 206 201 206 203 206 201 197 198 194 194 189 182 184 182 181 177 175 175 170 152 170 162 164 165 166 163 160 156 157 156 158 154 155 154 151 158 167 172 180 188 192 208 223 206
189 187 211 202 197 224 236 251 178 242 232 244 250 253 255 274 131 327 261 301 244 249 232 252 257 253 256 250 247 226 225 227 225 222 216 220 221 217 221 227 226 200 212 207 209 203 199 203 210 206 206 210 210 209 205 205 201 204 206 203 194 189 186 184 186 183 182 179 177 178 170 159 171 168 167 166 166 164 161 158 157 157 157 156 156 155 155 156 166 171 179 179 189 194 208 217 208